DW0805 Weather Reports


time (UTC)temp
F
wind
direction
speed
knots
gust
knots
rain 1hr
in
rain 24hr
in
rain mn
in
humidity
%
barometer
mb
20260505011514 46 313 2.6 7.0 0.00 0.02 0.00 87 1011.4
20260505005514 46 302 2.6 7.8 0.00 0.02 0.00 87 1011.4
20260505004514 46 307 5.2 7.8 0.00 0.02 0.00 87 1011.4
20260505003513 46 296 3.5 7.8 0.00 0.02 0.00 87 1011.5
20260505002513 46 296 3.5 7.8 0.00 0.02 0.00 87 1011.5
20260505001513 46 292 3.5 10.4 0.00 0.02 0.00 87 1011.5
20260504235514 46 302 4.3 7.8 0.00 0.02 0.00 87 1011.4
20260504234514 46 304 2.6 7.0 0.00 0.02 0.00 87 1011.4
20260504231513 47 314 3.5 7.8 0.00 0.03 0.00 87 1011.4
20260504230514 47 319 3.5 10.4 0.00 0.03 0.00 87 1011.5
20260504223513 47 314 2.6 5.2 0.00 0.04 0.00 87 1011.5
20260504222514 47 299 1.7 4.3 0.00 0.05 0.00 87 1011.5
20260504221510 47 319 2.6 5.2 0.00 0.05 0.00 87 1011.6
20260504220513 47 283 1.7 5.2 0.00 0.05 0.00 87 1011.6
20260504215514 47 313 2.6 6.1 0.00 0.05 0.05 87 1011.6
20260504211514 48 309 2.6 6.1 0.00 0.12 0.05 88 1011.6
20260504210514 48 319 2.6 5.2 0.00 0.12 0.05 89 1011.6
20260504205513 47 324 1.7 4.3 0.00 0.13 0.05 89 1011.6
20260504204513 47 328 1.7 2.6 0.00 0.13 0.05 89 1011.5
20260504203513 47 328 0.0 1.7 0.00 0.14 0.05 88 1011.5
20260504195512 49 333 0.9 4.3 0.00 0.20 0.05 86 1011.2
20260504194512 49 315 0.9 2.6 0.00 0.20 0.05 85 1011.2
20260504191512 51 298 0.0 1.7 0.00 0.20 0.05 81 1011.1
20260504190512 52 305 0.9 1.7 0.00 0.20 0.05 79 1011.1
20260504184513 53 281 1.7 4.3 0.00 0.20 0.05 77 1011.0
20260504182512 54 304 3.5 7.0 0.00 0.20 0.05 73 1010.9
20260504180512 55 0 4.3 8.7 0.00 0.20 0.05 67 1010.7
20260504173512 57 259 7.0 11.3 0.00 0.20 0.05 63 1010.7
20260504172512 58 246 5.2 10.4 0.00 0.20 0.05 63 1010.7
20260504171512 58 267 6.1 13.9 0.00 0.20 0.05 59 1010.7
20260504170512 58 272 7.0 13.9 0.00 0.20 0.05 60 1010.7
20260504100512 57 321 8.7 15.6 0.00 0.20 0.05 73 1009.9
20260504045513 51 311 2.6 5.2 0.00 0.19 0.04 96 1006.1
20260504043513 51 339 2.6 5.2 0.00 0.19 0.04 96 1006.0
20260504040512 52 346 2.6 7.8 0.00 0.19 0.04 96 1005.8
20260504035513 53 346 4.3 8.7 0.00 0.19 0.04 96 1005.8
20260504032512 54 234 7.8 12.2 0.00 0.19 0.04 96 1005.6
20260504025512 54 237 7.8 12.2 0.01 0.19 0.04 96 1005.6
20260504024512 54 229 6.1 13.0 0.01 0.19 0.04 96 1005.6
20260504022512 53 197 2.6 5.2 0.01 0.19 0.04 96 1005.7
20260504021513 53 324 0.0 0.0 0.01 0.19 0.04 96 1005.8
20260504020512 53 318 0.0 0.0 0.00 0.18 0.03 96 1005.7
20260504015512 53 323 0.0 0.0 0.01 0.18 0.03 96 1005.6
20260504014512 53 318 0.0 0.0 0.01 0.18 0.03 96 1005.7